Terminal Aerodrome Forecast
Issued by NWS Lubbock, TX

Home | Current Version | Previous Version | Text Only | Print | Product List | Glossary On
Versions: 1 2 3 4 5 6 7 8 9 10 11 12 13 14
669
FTUS44 KLUB 210522
TAFLBB
TAF
KLBB 210522Z 2106/2206 18016KT P6SM FEW250
     FM210900 20015KT P6SM BKN025
     FM211200 22015KT P6SM BKN150
     FM220000 34013G23KT P6SM FEW250=

USA.gov is the U.S. government's official web portal to all federal, state and local government web resources and services.